EW2997 Weather Reports


time (UTC)temp
C
wind
direction
speed
KPH
gust
KPH
rain 1hr
cm
rain 24hr
cm
rain mn
cm
humidity
%
barometer
mb
20240614131101 22 246 0.0 0.0 0.00 0.00 0.00 72 1017.4
20240614124059 22 306 1.6 1.6 0.00 0.00 0.00 73 1017.4
20240614121058 21 198 0.0 0.0 0.00 0.00 0.00 74 1017.4
20240614114058 18 228 0.0 0.0 0.00 0.00 0.00 88 1017.0
20240614111057 15 210 0.0 0.0 0.00 0.00 0.00 94 1017.0
20240614104056 14 150 0.0 0.0 0.00 0.00 0.00 95 1016.7
20240614101055 14 132 0.0 0.0 0.00 0.00 0.00 96 1016.7
20240614094054 13 204 0.0 0.0 0.00 0.00 0.00 96 1016.3
20240614091054 14 150 0.0 0.0 0.00 0.00 0.00 96 1016.3
20240614084054 14 156 0.0 0.0 0.00 0.00 0.00 95 1016.7
20240614081052 15 162 0.0 0.0 0.00 0.00 0.00 95 1016.7
20240614074051 15 138 0.0 0.0 0.00 0.00 0.00 94 1016.7
20240614071050 15 273 0.0 0.0 0.00 0.00 0.00 94 1016.7
20240614064048 16 156 0.0 0.0 0.00 0.00 0.00 93 1017.0
20240614061046 16 174 0.0 0.0 0.00 0.00 0.00 94 1017.0
20240614054044 17 144 0.0 0.0 0.00 0.00 0.00 94 1017.0
20240614051044 17 108 0.0 0.0 0.00 0.00 0.00 94 1017.0
20240614044043 18 177 0.0 0.0 0.00 0.00 0.00 92 1017.4
20240614041043 19 192 0.0 0.0 0.00 0.00 0.00 89 1017.4
20240614034043 19 108 0.0 0.0 0.00 0.00 0.00 89 1017.4
20240614031042 20 198 0.0 0.0 0.00 0.00 0.00 86 1017.7
20240614024040 21 168 0.0 0.0 0.00 0.00 0.00 83 1017.4
20240614021040 21 129 3.2 3.2 0.00 0.00 0.00 81 1017.7
20240614014040 21 162 0.0 0.0 0.00 0.00 0.00 80 1017.4
20240614011039 22 136 0.0 0.0 0.00 0.00 0.00 75 1017.0
20240614004038 24 148 0.0 0.0 0.00 0.00 0.00 71 1017.0
20240614001038 26 165 0.0 0.0 0.00 0.00 0.00 65 1017.0
20240613234036 28 197 0.0 0.0 0.00 0.00 0.00 54 1017.4
20240613231036 30 191 0.0 0.0 0.00 0.00 0.00 50 1017.4
20240613224035 30 198 3.2 3.2 0.00 0.00 0.00 51 1017.4
20240613221035 30 197 3.2 3.2 0.00 0.00 0.00 49 1017.4
20240613214035 30 282 3.2 3.2 0.00 0.00 0.00 49 1017.4
20240613211034 30 282 0.0 0.0 0.00 0.00 0.00 51 1017.4
20240613204032 30 162 4.8 4.8 0.00 0.00 0.00 48 1017.7
20240613201032 30 318 4.8 4.8 0.00 0.00 0.00 49 1017.7
20240613194031 29 312 4.8 4.8 0.00 0.00 0.00 48 1018.0
20240613191030 28 294 8.0 9.7 0.00 0.00 0.00 49 1018.4
20240613184029 28 270 4.8 6.4 0.00 0.00 0.00 52 1018.7
20240613181028 27 180 8.0 8.0 0.00 0.00 0.00 46 1019.0
20240613174027 27 330 6.4 6.4 0.00 0.00 0.00 47 1019.5
20240613171028 27 252 3.2 3.2 0.00 0.00 0.00 51 1019.5
20240613164027 26 197 3.2 3.2 0.00 0.00 0.00 56 1019.8
20240613161026 26 216 3.2 3.2 0.00 0.00 0.00 62 1020.2
20240613154026 25 222 4.8 4.8 0.00 0.00 0.00 67 1019.8
20240613151026 25 303 8.0 8.0 0.00 0.00 0.00 66 1020.2
20240613144025 23 236 3.2 3.2 0.00 0.00 0.00 66 1020.2
20240613141026 23 234 3.2 3.2 0.00 0.00 0.00 63 1020.5
20240613134024 23 222 3.2 3.2 0.00 0.00 0.00 63 1020.8